[[{"header":{"parameterUnit":"m.s-1","parameterCategory":1,"la1":30.2991,"la2":30.254,"lo1":-89.0895,"lo2":-89.0444,"dx":0.0017,"dy":0.0017,"nx":28,"ny":28,"refTime":"2022-11-13T15:00:00:Z","depth":0,"parameterNumber":2,"parameterNumberName":"U-component_of_WINDS"},"data":[0,0,0,0,0,0,0,0,0,0,0,0,0,0,0,0,0,0,0,0,0,0,0,0,0,0,0,0,0,0,0,0,0,0,0,0,0,0,0,0,0,0,0,0,0,0,0,0,0,0,0,0,0,0,0,0,0,0,-1.6992,-1.6993,0,-1.7058,-1.7059,-1.706,-1.7026,-1.7024,-1.7023,-1.7021,-1.7089,-1.7092,-1.7096,0,0,0,0,0,0,0,0,0,0,0,0,0,-1.6836,-1.6839,-1.6992,-1.6993,-1.6993,-1.7058,-1.7059,-1.706,-1.7026,-1.7024,-1.7022,-1.702,-1.7088,-1.7092,-1.7096,0,0,0,0,0,0,0,0,0,0,0,0,0,-1.6903,-1.684,-1.6992,-1.6985,-1.6985,-1.7058,-1.7059,-1.706,-1.7027,-1.7024,-1.7022,-1.7019,-1.7087,-1.7092,-1.7097,-1.7181,0,0,-1.7112,-1.7115,0,0,0,0,0,0,0,0,-1.6899,-1.6909,-1.6985,-1.6985,-1.6985,-1.7031,-1.7029,-1.7101,-1.7028,-1.7011,-1.7021,-1.7018,-1.7072,-1.7078,-1.7096,-1.7184,-1.7187,-1.7113,-1.7116,-1.7118,-1.712,0,0,0,0,0,0,0,-1.6895,-1.6906,-1.7018,-1.6986,-1.6986,-1.6978,-1.6985,-1.7042,-1.7055,-1.7012,-1.701,-1.7018,-1.7072,-1.7091,-1.7098,-1.7188,-1.7113,-1.7117,-1.7121,-1.7123,-1.7346,-1.7349,0,0,0,0,0,0,-1.689,-1.6902,-1.7016,-1.702,-1.6935,-1.6983,-1.699,-1.7019,-1.7055,-1.7057,-1.702,-1.7016,-1.7084,-1.7092,-1.71,-1.72,-1.7118,-1.7123,-1.7126,-1.7343,-1.7347,-1.735,0,0,0,0,0,0,-1.6887,-1.6901,-1.7013,-1.696,-1.6974,-1.6988,-1.7021,-1.7022,-1.7042,-1.7061,-1.7063,-1.7038,-1.7082,-1.7093,-1.7161,-1.7202,-1.7125,-1.713,-1.734,-1.7345,-1.7348,-1.7401,0,0,0,0,0,0,-1.6883,-1.69,-1.6932,-1.6961,-1.6977,-1.7073,-1.7024,-1.7025,-1.7051,-1.7046,-1.7078,-1.7081,-1.7081,-1.7153,-1.7166,-1.7208,-1.7134,-1.7336,-1.7342,-1.7347,-1.7396,-1.7407,-1.7416,0,0,0,0,0,-1.6877,-1.6945,-1.6934,-1.6948,-1.7018,-1.7076,-1.7085,-1.7083,-1.7054,-1.7086,-1.7098,-1.708,-1.7195,-1.716,-1.7174,-1.7218,-1.7334,-1.734,-1.7347,-1.7391,-1.7405,-1.7416,0,0,0,0,0,0,-1.692,-1.6948,-1.6937,-1.7016,-1.7044,-1.707,-1.7111,-1.7098,-1.7134,-1.7129,-1.7125,-1.7133,-1.7203,-1.7217,-1.7178,-1.7301,-1.726,-1.7269,-1.7289,-1.7302,-1.7312,-1.7307,-1.7138,0,0,0,0,0,-1.6939,-1.6984,-1.7006,-1.7073,-1.7088,-1.7097,-1.7122,-1.7119,-1.7147,-1.7159,-1.7176,-1.7204,-1.7247,-1.7275,-1.7315,-1.7397,-1.7404,-1.7434,-1.7445,-1.7453,-1.7461,-1.7505,-1.7518,-1.7371,-1.7371,-1.7371,0,0,-1.6978,-1.6999,-1.7028,-1.7083,-1.7104,-1.715,-1.7107,-1.7158,-1.7192,-1.7167,-1.7232,-1.7245,-1.7277,-1.7352,-1.7386,-1.7366,-1.7503,-1.7461,-1.7467,-1.7471,-1.7513,-1.7527,-1.7539,-1.7375,-1.7375,-1.7374,0,0,-1.7073,-1.7094,-1.7152,-1.7173,-1.7206,-1.7211,-1.7225,-1.7253,-1.7261,-1.7326,-1.7308,-1.7348,-1.7421,-1.7444,-1.7466,-1.7567,-1.7551,-1.7581,-1.7634,-1.7676,-1.7688,-1.7698,-1.7734,-1.7747,-1.7589,-1.7589,-1.7589,0,-1.7118,-1.7187,-1.7183,-1.7236,-1.726,-1.7238,-1.7297,-1.7318,-1.7362,-1.7379,-1.7356,-1.7447,-1.7466,-1.7546,-1.7571,-1.7589,-1.7604,-1.7577,-1.7686,-1.7697,-1.7706,-1.774,-1.7754,-1.7592,-1.7592,-1.7592,-1.7591,0,-1.724,-1.7288,-1.7331,-1.7373,-1.7402,-1.7458,-1.7462,-1.7492,-1.7485,-1.7493,-1.7559,-1.7581,-1.7625,-1.7644,-1.7638,-1.7723,-1.7709,-1.7686,-1.7645,-1.7724,-1.7756,-1.7769,-1.7597,-1.7596,-1.7595,-1.7594,0,0,-1.7365,-1.7404,-1.742,-1.7438,-1.7472,-1.7508,-1.7562,-1.7605,-1.763,-1.7661,-1.7705,-1.7767,-1.7746,-1.777,-1.7766,-1.7804,-1.7882,-1.7776,-1.7777,-1.7795,-1.7976,-1.7993,-1.8008,-1.7871,-1.7874,-1.7876,-1.7973,0,-1.7462,-1.7556,-1.7554,-1.7641,-1.7685,-1.7664,-1.7711,-1.7736,-1.7744,-1.7782,-1.7791,-1.7835,-1.7804,-1.7818,-1.7854,-1.7865,-1.7918,-1.7858,-1.7912,-1.7914,-1.7905,-1.8025,-1.8043,-1.8134,-1.7985,-1.7988,-1.7989,0,-1.7589,-1.7623,-1.7714,-1.774,-1.7758,-1.78,-1.7838,-1.7875,-1.7903,-1.7906,-1.7932,-1.7922,-1.7976,-1.7933,-1.8007,-1.7966,-1.7987,-1.7996,-1.8,-1.8005,-1.7957,-1.8033,-1.8163,-1.8176,-1.8009,-1.8007,-1.8006,0,-1.767,-1.7739,-1.7802,-1.7819,-1.7851,-1.788,-1.7895,-1.792,-1.7945,-1.7979,-1.7995,-1.8034,-1.8056,-1.8086,-1.8087,-1.8055,-1.8161,-1.8118,-1.8165,-1.8165,-1.8188,-1.8187,-1.8323,-1.8202,-1.8202,-1.8202,-1.8202,0,-1.7779,-1.7836,-1.7839,-1.7879,-1.7941,-1.7937,-1.7999,-1.8011,-1.8033,-1.8073,-1.8058,-1.8096,-1.8095,-1.8133,-1.8134,-1.8194,-1.8204,-1.8208,-1.8208,-1.821,-1.8209,-1.8224,-1.8218,-1.8206,-1.8205,-1.8204,-1.8203,0,-1.7881,-1.7886,-1.7954,-1.7978,-1.7985,-1.803,-1.805,-1.8087,-1.8093,-1.8145,-1.8156,-1.8166,-1.8211,-1.8214,-1.8266,-1.8267,-1.834,-1.8332,-1.833,-1.8329,-1.8375,-1.8371,-1.8526,-1.8546,-1.8413,-1.8414,-1.8415,0,-1.795,-1.7993,-1.8022,-1.8048,-1.8064,-1.8106,-1.8131,-1.8129,-1.8156,-1.819,-1.8223,-1.8265,-1.83,-1.8372,-1.8383,-1.8422,-1.8416,-1.8468,-1.8422,-1.8422,-1.8416,-1.8414,-1.8418,-1.8477,-1.8478,-1.8479,-1.848,0,-1.8073,-1.8072,-1.811,-1.8148,-1.8179,-1.8209,-1.8237,-1.8259,-1.826,-1.8291,-1.8336,-1.8363,-1.8415,-1.8457,-1.8495,-1.851,-1.8495,-1.8494,-1.8507,-1.851,-1.8507,-1.8509,-1.8355,-1.8491,-1.849,-1.8489,-1.8489,-1.8488,-1.816,-1.8197,-1.8222,-1.8264,-1.8285,-1.8311,-1.8346,-1.8357,-1.8394,-1.8437,-1.8433,-1.8483,-1.8508,-1.8557,-1.8575,-1.8613,-1.8596,-1.8614,-1.8619,-1.8624,-1.8628,-1.85,-1.862,-1.862,-1.862,-1.8619,-1.8619,0,-1.8281,-1.8296,-1.8335,-1.8374,-1.8407,-1.839,-1.8419,-1.8448,-1.8492,-1.8517,-1.855,-1.8602,-1.8642,-1.8657,-1.8696,-1.8724,-1.8719,-1.8735,-1.8733,-1.8736,-1.8642,-1.8627,-1.8739,-1.8739,-1.8739,-1.8739,-1.8739,-1.8739,-1.8348,-1.8409,-1.8412,-1.8483,-1.8497,-1.8546,-1.8564,-1.8588,-1.8607,-1.8665,-1.8699,-1.8708,-1.8728,-1.8769,-1.8805,-1.8808,-1.8824,-1.8843,-1.8843,-1.8755,-1.8743,-1.8731,-1.8717,-1.8846,-1.8846,-1.8934,-1.8935,-1.8935]},{"header":{"parameterUnit":"m.s-1","parameterCategory":1,"la1":30.2991,"la2":30.254,"lo1":-89.0895,"lo2":-89.0444,"dx":0.0017,"dy":0.0017,"nx":28,"ny":28,"refTime":"2022-11-13T15:00:00:Z","depth":0,"parameterNumber":3,"parameterNumberName":"V-component_of_WINDS"},"data":[0,0,0,0,0,0,0,0,0,0,0,0,0,0,0,0,0,0,0,0,0,0,0,0,0,0,0,0,0,0,0,0,0,0,0,0,0,0,0,0,0,0,0,0,0,0,0,0,0,0,0,0,0,0,0,0,0,0,-6.3984,-6.3986,0,-6.4097,-6.4098,-6.4099,-6.4026,-6.4023,-6.4019,-6.4016,-6.4125,-6.413,-6.4136,0,0,0,0,0,0,0,0,0,0,0,0,0,-6.37,-6.3706,-6.3984,-6.3986,-6.3987,-6.4096,-6.4098,-6.4099,-6.4027,-6.4022,-6.4018,-6.4015,-6.4123,-6.413,-6.4137,0,0,0,0,0,0,0,0,0,0,0,0,0,-6.3819,-6.3708,-6.3984,-6.3964,-6.3964,-6.4096,-6.4098,-6.41,-6.4027,-6.4022,-6.4017,-6.4013,-6.412,-6.4129,-6.4138,-6.4294,0,0,-6.4165,-6.4169,0,0,0,0,0,0,0,0,-6.3812,-6.3829,-6.3966,-6.3966,-6.3965,-6.4042,-6.4037,-6.4165,-6.4029,-6.4003,-6.4016,-6.401,-6.4101,-6.4111,-6.4143,-6.4299,-6.4304,-6.4166,-6.4172,-6.4176,-6.4178,0,0,0,0,0,0,0,-6.3804,-6.3824,-6.4028,-6.3968,-6.3968,-6.3947,-6.3959,-6.4061,-6.4078,-6.4005,-6.4,-6.4014,-6.41,-6.4134,-6.4145,-6.4306,-6.4166,-6.4174,-6.418,-6.4183,-6.4593,-6.4598,0,0,0,0,0,0,-6.3798,-6.3818,-6.4025,-6.4032,-6.3875,-6.3956,-6.3969,-6.4022,-6.4077,-6.4081,-6.4019,-6.4011,-6.4121,-6.4134,-6.4148,-6.4334,-6.4175,-6.4184,-6.4189,-6.4588,-6.4594,-6.46,0,0,0,0,0,0,-6.3793,-6.3818,-6.402,-6.3924,-6.3948,-6.3967,-6.4027,-6.4027,-6.4062,-6.4088,-6.409,-6.4051,-6.4118,-6.4136,-6.4258,-6.4336,-6.4188,-6.4196,-6.4581,-6.459,-6.4597,-6.4706,0,0,0,0,0,0,-6.3785,-6.3816,-6.3877,-6.3926,-6.3953,-6.4131,-6.4032,-6.4033,-6.4079,-6.4069,-6.4119,-6.4122,-6.4115,-6.4245,-6.4267,-6.4346,-6.4203,-6.4574,-6.4585,-6.4595,-6.4696,-6.4717,-6.4735,0,0,0,0,0,-6.3775,-6.3903,-6.3881,-6.3906,-6.4031,-6.4136,-6.4151,-6.4143,-6.4085,-6.4146,-6.4162,-6.4121,-6.4325,-6.4259,-6.4283,-6.4365,-6.4569,-6.4582,-6.4594,-6.4687,-6.4713,-6.4735,0,0,0,0,0,0,-6.3861,-6.3909,-6.3885,-6.4033,-6.4081,-6.4123,-6.4199,-6.4171,-6.4235,-6.4223,-6.4207,-6.4219,-6.4347,-6.4368,-6.4294,-6.4518,-6.4438,-6.4455,-6.45,-6.4525,-6.4544,-6.4536,-6.4211,0,0,0,0,0,-6.3898,-6.3981,-6.4017,-6.4144,-6.417,-6.4181,-6.4226,-6.4215,-6.4264,-6.4283,-6.4308,-6.4355,-6.4429,-6.4478,-6.4548,-6.4699,-6.4707,-6.4767,-6.4787,-6.4803,-6.4818,-6.4897,-6.4923,-6.4641,-6.4641,-6.4641,0,0,-6.3973,-6.401,-6.4063,-6.4162,-6.4198,-6.4282,-6.4198,-6.4291,-6.4353,-6.4296,-6.4414,-6.4434,-6.4485,-6.4622,-6.4683,-6.4643,-6.4898,-6.4819,-6.4832,-6.4838,-6.4912,-6.4939,-6.4963,-6.4649,-6.4648,-6.4646,0,0,-6.4154,-6.4191,-6.43,-6.4338,-6.4395,-6.4401,-6.4427,-6.4474,-6.4486,-6.4604,-6.4563,-6.4635,-6.4764,-6.4801,-6.4837,-6.5031,-6.4995,-6.5054,-6.5157,-6.5234,-6.5257,-6.5276,-6.5344,-6.5368,-6.5069,-6.507,-6.507,0,-6.424,-6.4368,-6.4359,-6.4455,-6.4499,-6.4454,-6.4562,-6.4599,-6.4674,-6.4704,-6.4659,-6.4819,-6.485,-6.4994,-6.5042,-6.5073,-6.51,-6.5048,-6.5255,-6.5274,-6.5292,-6.5356,-6.5382,-6.5076,-6.5076,-6.5075,-6.5074,0,-6.447,-6.4559,-6.464,-6.4716,-6.4769,-6.4871,-6.4874,-6.4929,-6.4913,-6.4923,-6.5043,-6.5079,-6.5154,-6.5188,-6.5173,-6.533,-6.5303,-6.5257,-6.5175,-6.5326,-6.5386,-6.541,-6.5086,-6.5084,-6.5082,-6.508,0,0,-6.4708,-6.4778,-6.4807,-6.4841,-6.4899,-6.4967,-6.5065,-6.5141,-6.5187,-6.524,-6.5321,-6.5431,-6.5388,-6.5429,-6.5418,-6.5486,-6.5635,-6.5431,-6.5432,-6.5466,-6.5807,-6.584,-6.5869,-6.5612,-6.5616,-6.562,-6.5802,0,-6.4891,-6.5066,-6.506,-6.5221,-6.5302,-6.526,-6.5345,-6.5389,-6.5401,-6.5469,-6.5482,-6.5559,-6.5498,-6.5522,-6.5588,-6.5603,-6.5703,-6.559,-6.5684,-6.5687,-6.5671,-6.59,-6.5936,-6.6106,-6.5825,-6.5829,-6.5832,0,-6.5127,-6.519,-6.5361,-6.5406,-6.544,-6.5517,-6.5585,-6.5652,-6.57,-6.5704,-6.575,-6.5727,-6.5824,-6.5741,-6.5873,-6.5797,-6.5835,-6.5848,-6.5854,-6.5861,-6.5768,-6.5911,-6.616,-6.6185,-6.5869,-6.5866,-6.5863,0,-6.5281,-6.5409,-6.5527,-6.5556,-6.5613,-6.5668,-6.5694,-6.5737,-6.5782,-6.5841,-6.587,-6.5939,-6.5976,-6.6029,-6.6024,-6.5965,-6.6158,-6.6075,-6.6161,-6.6162,-6.6203,-6.62,-6.6459,-6.6231,-6.623,-6.623,-6.6229,0,-6.5485,-6.559,-6.5596,-6.5669,-6.5785,-6.5776,-6.589,-6.5909,-6.5948,-6.6022,-6.5989,-6.6058,-6.6049,-6.6118,-6.6115,-6.6224,-6.6241,-6.6245,-6.6242,-6.6247,-6.6246,-6.627,-6.6258,-6.6236,-6.6235,-6.6234,-6.6232,0,-6.5676,-6.5685,-6.581,-6.5854,-6.5867,-6.595,-6.5986,-6.6054,-6.6063,-6.6156,-6.6177,-6.6192,-6.6271,-6.6272,-6.6363,-6.636,-6.6492,-6.6478,-6.6477,-6.6473,-6.6559,-6.655,-6.6841,-6.6878,-6.6628,-6.663,-6.6632,0,-6.5804,-6.5885,-6.5937,-6.5985,-6.6015,-6.6092,-6.6139,-6.6133,-6.6182,-6.6242,-6.6301,-6.6378,-6.6439,-6.6567,-6.6583,-6.6652,-6.6637,-6.6734,-6.6647,-6.6648,-6.6636,-6.6631,-6.6637,-6.6751,-6.6753,-6.6756,-6.6758,0,-6.6031,-6.6031,-6.6101,-6.6173,-6.6229,-6.6285,-6.6335,-6.6376,-6.6375,-6.6432,-6.6513,-6.6561,-6.6653,-6.6729,-6.6795,-6.6818,-6.6787,-6.6785,-6.6808,-6.6813,-6.6809,-6.681,-6.6522,-6.6778,-6.6776,-6.6775,-6.6773,-6.6773,-6.6194,-6.6262,-6.631,-6.6388,-6.6426,-6.6474,-6.654,-6.6558,-6.6626,-6.6703,-6.6694,-6.6784,-6.6828,-6.6914,-6.6943,-6.7011,-6.6977,-6.7011,-6.702,-6.7028,-6.7036,-6.68,-6.7023,-6.7023,-6.7022,-6.7022,-6.7021,0,-6.6417,-6.6445,-6.6518,-6.6591,-6.6652,-6.662,-6.6674,-6.6726,-6.6807,-6.6851,-6.6912,-6.7005,-6.7078,-6.71,-6.717,-6.7221,-6.7208,-6.7239,-6.7234,-6.724,-6.7064,-6.7036,-6.7248,-6.7248,-6.7248,-6.7248,-6.7248,-6.7248,-6.654,-6.6654,-6.666,-6.6792,-6.6819,-6.6909,-6.6942,-6.6985,-6.7021,-6.7126,-6.7188,-6.7203,-6.7238,-6.731,-6.7374,-6.7379,-6.7405,-6.7441,-6.744,-6.7275,-6.7252,-6.723,-6.7204,-6.7448,-6.7448,-6.761,-6.7611,-6.7612]}]]